www.pogodaiklimat.ru

Погода и климат >> Архив погоды >> Китай >> Lu Shan


ПОГОДА в Lu Shan

  • Прогноз погоды в Lu Shan
  • Монитор погоды в Lu Shan
  • Климат города

АРХИВ ПОГОДЫ в Lu Shan

Время (UTC), дата Ветер
(напр.,м/с)
 
Видим.   Явления Облачность Т
(С)
Тd
(С)
f
(%)
Тe
(С)
Тes
(С)
Комфортность P
(гПа)
Po
(гПа)
Тmin
(С)
Tmax
(С)
R
(мм)
R24
(мм)
S
(см)
18 12.11 СВ 3 100 м туман ?/? +6.4 +6.4 100 +3 +3 1022.4 888.2 +10.2
21 12.11 В 4 100 м туман ?/? +6.2 +6.2 100 +2 +2 1021.8 1022.0
00 13.11 ЮВ 3 1500 м туман ?/? +6.9 +6.9 100 +4 +4 1022.8 1044.7
03 13.11 Ю 1 20 км н/о +10.0 +10.0 100 +9 +9 1021.9 1022.0
06 13.11 С 1 500 м туман ?/? +9.1 +9.1 100 +8 +8 1019.9 1020.0 +5.9
09 13.11 В 2 100 м слабый дождь {туман} ?/? +7.8 +7.8 100 +6 +6 1020.1 1020.0
12 13.11 С 1 100 м туман {дождь, морось} ?/? +7.8 +7.8 100 +7 +7 1020.7 1021.0 0.1
18 13.11 С 1 100 м туман ?/? +8.1 +8.1 100 +7 +7 1019.9 886.7 +10.0
21 13.11 С 2 4300 м дымка н/о +8.5 +8.5 100 +6 +6 1019.8 1020.0
00 14.11 Ю 3 100 м туман ?/? +9.2 +9.2 100 +7 +7 1021.2 1043.1 0.5
03 14.11 З 1 <100 м туман ?/? +10.6 +10.6 100 +10 +10 1021.0 1021.0
06 14.11 В 2 10 км слабый дождь {морось, туман} 10/10 100 м
[]
+10.2 +10.2 100 +9 +9 1018.6 1019.0 +7.5 1
09 14.11 Ю 2 600 м морось {дождь} н/о +9.6 +9.6 100 +8 +8 1019.0 1019.0
12 14.11 В 1 400 м сильная морось {дождь, туман} ?/? +9.3 +9.3 100 +8 +8 1019.9 1020.0 7
18 14.11 штиль 0 200 м туман {дождь, морось} ?/? +9.5 +9.5 100 +9 +9 1019.9 1020.0 +13.4 1
21 14.11 штиль 0 100 м туман ?/? +9.3 +9.3 100 +8 +8 1018.9 1019.0
00 15.11 СВ 2 500 м слабый дождь ?/? +9.9 +9.9 100 +8 +8 1021.2 1021.0 1
03 15.11 СВ 3 9000 м в посл. час туман 9/9 300 м
[]
+11.1 +11.1 100 +9 +10 1020.4 1020.0
06 15.11 С 1 200 м в посл. час туман {дождь, морось} ?/? +10.4 +10.4 100 +10 +10 1019.1 1019.0 +8.3 0.2
09 15.11 С 5 <100 м туман {дождь, морось} н/о +7.5 +7.5 100 +3 +3 1021.0 1021.0
12 15.11 С 5 100 м туман {дождь, морось} ?/? +7.4 +7.4 100 +3 +3 1022.0 1022.0
18 15.11 В 5 200 м туман ?/? +6.9 +6.9 100 +3 +3 1021.9 1022.0 +12.2 0.1
21 15.11 В 12 200 м туман н/о +6.3 +6.3 100 -0 -0 1022.6 1023.0
00 16.11 В 12
{19}
300 м слабый дождь ?/? +6.1 +6.1 100 -1 -1 1024.0 1024.0 0.1
03 16.11 В 12
{19}
600 м слабый дождь {морось, туман} ?/? +5.3 +5.3 100 -2 -2 1025.2 1025.0
06 16.11 В 11
{19}
200 м туман {дождь, морось} ?/? +5.0 +5.0 100 -2 -2 1023.6 1024.0 +4.5 1
09 16.11 СВ 13
{21}
200 м туман {дождь, морось} ?/? +5.1 +5.1 100 -2 -2 1023.5 1024.0
12 16.11 В 10
{22}
100 м сильная морось {дождь, туман} ?/? +5.5 +5.5 100 -1 -1 1024.0 1024.0 0.0
18 16.11 В 4
{19}
100 м туман ?/? +5.4 +5.4 100 +1 +1 1024.3 1024.0 +6.9
21 16.11 В 5 100 м туман ?/? +5.0 +5.0 100 0 0 1023.5 1024.0
00 17.11 В 4 13 км 10/10 100 м
[]
+7.7 +7.7 100 +4 +4 1023.4 1024.5 0.0
03 17.11 В 1 1500 м дымка {туман} ?/? +8.6 +8.6 100 +8 +8 1023.6 1024.0
06 17.11 Ю 1 400 м слабый дождь {морось, туман} ?/? +8.6 +8.6 100 +8 +8 1020.7 1021.0 +5.0 0.3
09 17.11 штиль 0 300 м слабый дождь {морось, туман} н/о +6.7 +6.7 100 +6 +6 1021.7 1022.0
12 17.11 В 1 100 м туман {дождь, морось} ?/? +6.8 +6.8 100 +6 +6 1021.9 1022.0 0.5
18 17.11 С 4 200 м туман {дождь, морось} ?/? +4.8 +4.8 100 0 0 1021.1 1021.0 +9.5 1
21 17.11 СВ 6 200 м сильная морось н/о +3.8 +3.8 100 -2 -2 1021.6 1022.0
00 18.11 СВ 6 7000 м слабый дождь ?/? +4.5 +4.5 100 -1 -1 1022.8 1023.0 9
03 18.11 С 4 300 м слабый дождь {морось, туман} н/о +4.0 +4.0 100 -1 -1 1024.7 1025.0
06 18.11 С 3 300 м сильная морось {дождь, туман} ?/? +3.5 +3.5 100 -1 -1 1023.1 1023.0 +3.2 10
09 18.11 С 3 200 м сильная морось {дождь, туман} ?/? +3.0 +3.0 100 -1 -1 1024.6 1025.0
12 18.11 С 2 <100 м сильная морось {дождь, туман} ?/? +2.7 +2.7 100 -1 -1 1025.7 1026.0 1
18 18.11 С 4 200 м сильная морось {туман} ?/? +2.3 +2.3 100 -3 -3 1026.6 1027.0 +4.9 3
21 18.11 С 2 100 м туман ?/? +2.4 +2.4 100 -1 -1 1026.6 1027.0
00 19.11 СВ 2 17 км 10/10 100 м
[]
+2.6 +2.6 100 -1 -1 1028.0 1028.0 0.9
03 19.11 В 1 18 км 9/9 100 м
[]
+5.6 +5.6 100 +4 +5 1027.7 1028.0
06 19.11 З 1 12 км в посл. час туман 10/10 100 м
[]
+3.7 +3.7 100 +2 +2 1026.1 1026.0 +2.2
09 19.11 штиль 0 300 м туман ?/? +4.0 +4.0 100 +3 +3 1026.1 1026.0
12 19.11 В 1 1800 м дымка {туман} ?/? +3.3 +3.3 100 +2 +2 1027.4 1027.0

 

Местоположение метеостанции Lu Shan (Китай): широта 29.58 долгота 115.98 высота над уровнем моря 1165 м.

В архиве по умолчанию представлена погода в Lu Shan за последнюю неделю. Архивные данные за месяц целиком и за предыдущие месяцы, начиная с января 2011 года, Вы можете получить, выбрав интересующий диапазон дат из раскрывающегося списка и нажав кнопку "Ввод!".


*Определитесь, кто Вы:
робот инопланетянин человек

Внимание! Время в таблицах - всемирное. Для получения местного времени необходимо прибавить поправку, которая в Lu Shan равна 8 ч.

Смотрите также архив погоды в соседних городах и на ближайших метеорологических станциях:

Погода в Nanchang (Китай) (109 км)
Погода в Jingdezhen (Китай) (122 км)
Погода в Anqing (Китай) (148 км)
Погода в Xiushui (Китай) (149 км)
Погода в Macheng (Китай) (203 км)
Погода в Huoshan (Китай) (205 км)
Погода в Wuhan (Китай) (212 км)
Погода в Huang Shan (Китай) (218 км)
Погода в Nancheng (Китай) (232 км)
Погода в Yichun (Китай) (252 км)

Пояснения к столбцам:

Ветер - указаны скорость ветра в м/с - средняя за 10 мин, порывы в срок и между сроками (в фигурных скобках) и направление, откуда дует ветер: С - северный, СВ - северо-восточный, В - восточный, ЮВ - юго-восточный, Ю - южный, ЮЗ - юго-западный, З - западный, СЗ - северо-западный.
Видимость - горизонтальная дальность видимости в метрах или километрах. При видимости от 1 до 10 км при отсутствии осадков обычно наблюдается дымка, при ухудшении видимости до 1 км и менее - туман. В сухую погоду видимость может ухудшаться дымом, пылью или мглою.
Явления - указаны атмосферные явления, наблюдавшиеся в срок или в последний час перед сроком; фигурными скобками обозначены явления, наблюдавшиеся между сроками (за 1-3 часа до срока); квадратными скобками обозначены град или гололедные отложения с указанием их диаметра в мм.
Облачность - указаны через наклонную черту общая и нижняя облачность в баллах и высота нижней границы облаков в метрах; квадратными скобками обозначены формы облаков: Ci - перистые, Cs - перисто-слоистые, Cc - перисто-кучевые, Ac - высококучевые, As - высокослоистые, Sc - слоисто-кучевые, Ns - слоисто-дождевые, Cu - кучевые, Cb - кучево-дождевые. Подробнее классификацию облаков см. в Атласе облаков (PDF).
T - Температура воздуха - температура, измеренная на высоте 2 м над землей.
Td - Температура точки росы - температура, при понижении до которой содержащийся в воздухе водяной пар достигнет насыщения.
f - Относительная влажность воздуха - влажноcть воздуха, измеренная на высоте 2 м над землей.
Te - Эффективная температура - температура, которую ощущает одетый по сезону человек в тени. Характеристика душности погоды. При расчете учитывается влияние влажности воздуха и скорости ветра на теплоощущения человека.
Tes - Эффективная температура на солнце - температура, которую ощущает человек, с поправкой на солнечный нагрев. Характеристика знойности погоды. Зависит от высоты солнца над горизонтом, облачности и скорости ветра. Ночью, в пасмурную погоду, а также при ветре 12 м/с и более поправка равна нулю.
P - Атмосферное давление - приведенное к уровню моря атмосферное давление.
Po - Атмосферное давление - измеренное на уровне метеостанции атмосферное давление.
Tmin - Минимальная температура - минимум температуры воздуха на высоте 2 м над землей.
Tmax - Максимальная температура - максимум температуры воздуха на высоте 2 м над землей.
R - Количество осадков - Количество выпавших осадков за период времени, мм. При наведении курсора мыши на число - период времени, за который выпало указанное количество осадков.
R24 - Количество осадков - Количество выпавших осадков за 24 часа, мм.
S - Снежный покров - Высота снежного покрова, см. При наведении курсора мыши на число - состояние снежного покрова и степень покрытия местности в баллах.